Location: Unspecified
(0.0000°N, 0.0000°E)
Time: 09:08:12
(UTC+00:00)

Kyokko - Visible Passes

Search period start: 05 June 2023 00:00
Search period end: 15 June 2023 00:00
Orbit: 636 x 3945 km, 65.4° (Epoch: 04 June)

Date Brightness Start Highest point End Pass type
(mag) Time Alt. Az. Time Alt. Az. Time Alt. Az.
05 Jun 10.1 20:12:46 10° WSW 20:19:54 27° WNW 20:31:09 10° N visible
06 Jun 11.8 04:04:25 10° NNE 04:11:21 13° NE 04:17:11 10° ENE visible
06 Jun 8.1 18:27:34 10° SSW 18:34:40 79° ESE 18:48:10 10° NNE visible
06 Jun 10.9 20:50:53 10° WNW 20:55:31 13° NW 21:01:16 10° NNW visible
07 Jun 11.1 04:33:03 10° N 04:47:23 26° ENE 04:57:09 10° ESE visible
07 Jun 8.9 19:01:29 10° SW 19:08:55 56° WNW 19:22:36 10° N visible
08 Jun 10.4 05:05:20 10° N 05:22:54 44° ENE 05:33:21 10° SE visible
08 Jun 10.1 19:36:36 10° WSW 19:43:55 30° WNW 19:55:44 10° N visible
09 Jun 11.7 03:30:36 10° NE 03:35:16 11° NE 03:39:25 10° ENE visible
09 Jun 10.9 20:14:02 10° W 20:19:29 15° NW 20:26:32 10° NNW visible
10 Jun 11.1 03:57:50 10° NNE 04:11:23 23° ENE 04:20:49 10° ESE visible
10 Jun 8.9 18:25:33 10° SW 18:33:00 61° WNW 18:46:57 10° NNE visible
11 Jun 10.3 04:29:49 10° N 04:46:58 41° ENE 04:57:18 10° SE visible
11 Jun 10.1 19:00:29 10° WSW 19:07:55 33° WNW 19:20:17 10° N visible
12 Jun 9.4 05:03:25 10° NNW 05:22:00 68° ENE 05:32:09 10° SSE visible
12 Jun 11.0 19:37:24 10° W 19:43:26 17° NW 19:51:36 10° NNW visible
13 Jun 11.1 03:22:41 10° NNE 03:35:22 21° ENE 03:44:25 10° ESE visible
14 Jun 10.3 03:54:21 10° N 04:11:02 38° ENE 04:21:13 10° SE visible
14 Jun 10.2 18:24:23 10° WSW 18:31:57 36° WNW 18:44:48 10° N visible
